Weather History for St. Croix, VI

Change the Weather History Date:

Tuesday, October 30, 2012

  Actual Average Record
Temperature  
Mean Temperature 83 °F 82 °F  
Max Temperature 88 °F 87 °F 92 °F (1986)
Min Temperature 77 °F 76 °F 65 °F (1974)
Degree Days  
Heating Degree Days 0 0  
Month to date heating degree days 0 0  
Since 1 July heating degree days 0 0  
Cooling Degree Days 18 17  
Month to date cooling degree days 540 513  
Year to date cooling degree days 4389 4910  
Growing Degree Days 32 (Base 50)    
Moisture  
Dew Point 75 °F    
Average Humidity 77    
Maximum Humidity 91    
Minimum Humidity 63    
Precipitation  
Precipitation 0.00 in 0.19 in 0.97 in (1976)
Month to date precipitation 2.64 5.05  
Year to date precipitation 24.51 30.04  
Sea Level Pressure  
Sea Level Pressure 29.95 in    
Wind  
Wind Speed 6 mph (SE)    
Max Wind Speed 12 mph    
Max Gust Speed 14 mph    
Visibility 9 miles    
Events      
T = Trace of Precipitation, MM = Missing Value Source: NWS Daily Summary

Daily Weather History Graph

Daily Weather History Graph

Search for Another Location

Airport:

Trip Planner

Search our weather history database for the weather conditions in past years. The results will help you decide how hot, cold, wet, or windy it might be!

Date:

Astronomy

Oct. 30, 2012 Rise Set
Actual Time 6:17 AM AST 5:47 PM AST
Civil Twilight 5:55 AM AST 6:10 PM AST
Nautical Twilight 5:29 AM AST 6:36 PM AST
Astronomical Twilight 5:03 AM AST 7:01 PM AST
Moon 6:26 PM AST (10/30) 6:50 AM AST (10/30)
Length of Visible Light 12h 15m
Length of Day
11h 30m
Full, 99% of the Moon is Illuminated
Oct 30
Full
Nov 6
Last Quarter
Nov 13
New
Nov 20
First Quarter
Nov 28
Full

Hourly Weather History & Observations

Time (AST) Temp. Heat Index Dew Point Humidity Pressure Visibility Wind Dir Wind Speed Gust Speed Precip Events Conditions
12:32 AM 82.4 °F 90.9 °F 77.0 °F 84% 29.92 in 10.0 mi SSE 4.6 mph - N/A   Mostly Cloudy
12:49 AM 82.4 °F 89.5 °F 75.2 °F 79% 29.92 in 10.0 mi SE 4.6 mph - N/A   Scattered Clouds
12:53 AM 82.0 °F 89.4 °F 75.9 °F 82% 29.91 in 10.0 mi SSE 3.5 mph - N/A   Scattered Clouds
1:15 AM 82.4 °F 90.9 °F 77.0 °F 84% 29.91 in 10.0 mi SSE 3.5 mph - N/A   Mostly Cloudy
1:53 AM 82.0 °F 89.4 °F 75.9 °F 82% 29.90 in 10.0 mi SE 4.6 mph - N/A   Mostly Cloudy
2:00 AM 82.4 °F 89.5 °F 75.2 °F 79% 29.90 in 10.0 mi SE 5.8 mph - N/A   Scattered Clouds
2:53 AM 82.0 °F 89.4 °F 75.9 °F 82% 29.90 in 10.0 mi SSE 3.5 mph - N/A   Clear
3:53 AM 82.0 °F 89.4 °F 75.9 °F 82% 29.90 in 10.0 mi SSE 6.9 mph - N/A   Scattered Clouds
4:53 AM 82.0 °F 88.6 °F 75.0 °F 79% 29.91 in 10.0 mi SSE 5.8 mph - N/A   Partly Cloudy
5:53 AM 81.0 °F 86.7 °F 75.0 °F 82% 29.93 in 10.0 mi SE 4.6 mph - N/A   Partly Cloudy
6:53 AM 82.0 °F 88.6 °F 75.0 °F 79% 29.95 in 10.0 mi SE 5.8 mph - N/A   Partly Cloudy
7:53 AM 84.0 °F 91.9 °F 75.0 °F 74% 29.96 in 10.0 mi SE 8.1 mph - N/A   Partly Cloudy
8:53 AM 86.0 °F 93.8 °F 73.9 °F 67% 29.98 in 10.0 mi ESE 9.2 mph - N/A   Partly Cloudy
9:53 AM 87.1 °F 95.4 °F 73.9 °F 65% 29.99 in 10.0 mi SE 10.4 mph - N/A   Partly Cloudy
10:53 AM 87.1 °F 96.3 °F 75.0 °F 67% 29.99 in 10.0 mi SE 9.2 mph - N/A   Partly Cloudy
11:53 AM 87.1 °F 96.3 °F 75.0 °F 67% 29.97 in 10.0 mi SE 8.1 mph - N/A   Partly Cloudy
12:53 PM 87.1 °F 96.3 °F 75.0 °F 67% 29.95 in 10.0 mi ESE 8.1 mph - N/A   Partly Cloudy
1:53 PM 87.1 °F 96.3 °F 75.0 °F 67% 29.94 in 10.0 mi SSE 6.9 mph - N/A   Partly Cloudy
2:53 PM 87.1 °F 96.3 °F 75.0 °F 67% 29.93 in 7.0 mi SE 8.1 mph - N/A   Scattered Clouds
3:53 PM 84.9 °F 93.3 °F 75.0 °F 72% 29.92 in 8.0 mi ESE 5.8 mph - N/A   Mostly Cloudy
4:53 PM 84.0 °F 91.2 °F 73.9 °F 72% 29.94 in 6.0 mi SE 5.8 mph - N/A   Haze
5:53 PM 82.9 °F 90.2 °F 75.0 °F 77% 29.94 in 9.0 mi SE 4.6 mph - N/A   Clear
6:53 PM 82.0 °F 88.6 °F 75.0 °F 79% 29.95 in 9.0 mi ESE 4.6 mph - N/A   Partly Cloudy
7:15 PM 82.4 °F 89.5 °F 75.2 °F 79% 29.96 in 9.0 mi ESE 5.8 mph - N/A   Mostly Cloudy
7:25 PM 82.4 °F 89.5 °F 75.2 °F 79% 29.96 in 10.0 mi ESE 5.8 mph - N/A   Scattered Clouds
7:53 PM 82.0 °F 87.9 °F 73.9 °F 76% 29.97 in 10.0 mi ESE 4.6 mph - N/A   Clear
8:53 PM 79.0 °F - 75.0 °F 88% 29.98 in 7.0 mi North 3.5 mph - N/A   Partly Cloudy
9:53 PM 78.1 °F - 73.9 °F 87% 30.00 in 8.0 mi North 3.5 mph - N/A   Clear
10:53 PM 77.0 °F - 73.9 °F 90% 30.00 in 8.0 mi North 4.6 mph - N/A   Partly Cloudy
11:53 PM 77.0 °F - 73.9 °F 90% 29.98 in 9.0 mi NNE 3.5 mph - N/A   Clear